Regional Weather Roundup
Issued by NWS Kansas City/Pleasant Hill, MO

Home | Current Version | Previous Version | Graphics & Text | Print | Product List | Glossary Off
Versions: 1 2 3 4 5 6 7 8 9 10 11 12 13 14 15 16 17 18 19 20 21 22 23 24 25 26 27

000
ASUS43 KEAX 172010
RWREAX

WEATHER ROUNDUP FOR EASTERN KANSAS AND NORTHWEST MISSOURI
NATIONAL WEATHER SERVICE KANSAS CITY/PLEASANT HILL MO
300 PM CDT TUE OCT 17 2017

KSZ040-057-103>105-MOZ028-029-037-043-172100-
...KANSAS CITY METROPOLITAN AREA...

CITY           SKY/WX    TMP DP  RH WIND       PRES   REMARKS
K.C. INTL      MOSUNNY   71  46  40 S17       30.11F
K.C. DOWNTOWN  SUNNY     73  46  38 S16       30.11F
LEES SUMMIT    SUNNY     71  46  40 S20G26    30.13F
OLATHE - IXD   SUNNY     71  47  42 S16G23    30.12F
OLATHE - OJC   SUNNY     69  45  41 S16G22    30.12F
LAWRENCE       SUNNY     73  46  38 S12G21    30.10F

$$

MOZ001>008-011>017-020>025-030>033-038>040-044>046-053-054-172100-
...NORTHERN AND CENTRAL MISSOURI...

CITY           SKY/WX    TMP DP  RH WIND       PRES   REMARKS
ST. JOSEPH     SUNNY     73  45  36 S14G22    30.08F
MOSBY          CLEAR     70  41  35 S12       30.11F
WARRENSBURG    SUNNY     70  43  37 S14G22    30.14F
WHITEMAN AFB   SUNNY     70  45  40 S16       30.11F
CLINTON        SUNNY     70  45  40 S12       30.17F HAZE
SEDALIA        SUNNY     71  48  43 S13       30.18F
WARSAW         NOT AVBL
CHILLICOTHE      N/A     71  45  39 S10G22    30.12F
KIRKSVILLE     SUNNY     71  45  39 SW13G18   30.14F

$$

MOZ041-047>049-056>058-063>065-088>090-097-172100-
...EASTERN AND SOUTHERN MISSOURI...

CITY           SKY/WX    TMP DP  RH WIND       PRES   REMARKS
ST. LOUIS INTL PTSUNNY   70  39  32 S8        30.23F
SPIRIT OF STL  MOSUNNY   71  41  33 SW12G17   30.21F
COLUMBIA       SUNNY     70  45  40 SW9       30.18F
JEFFERSON CITY SUNNY     70  42  36 S8        30.18F
ROLLA          SUNNY     68  42  38 S7        30.22F
OSAGE BEACH    SUNNY     70  44  39 S9        30.20F
SPRINGFIELD    SUNNY     71  41  33 SW10      30.19F
BRANSON        MOSUNNY   68  37  32 SE7       30.23F
JOPLIN         SUNNY     70  45  40 S7        30.19F
WEST PLAINS    SUNNY     68  37  32 S8        30.25F

$$

IAZ060-094-KSZ022-034>040-054-083-096-NEZ052-066-093-172100-
...KANSAS...SOUTHEAST NEBRASKA AND IOWA...

CITY           SKY/WX    TMP DP  RH WIND       PRES   REMARKS
TOPEKA         SUNNY     74  45  35 S14G21    30.08F
MANHATTAN      SUNNY     75  47  36 SW13G23   30.05F
EMPORIA        SUNNY     74  44  34 S24G30    30.09F
CHANUTE        LGT RAIN  71  47  42 S18       30.15F
WICHITA        SUNNY     73  46  38 S16       30.10F
OMAHA          SUNNY     71  44  37 S10       30.03F
LINCOLN        SUNNY     71  45  39 VRB3      30.04F
FALLS CITY     SUNNY     72  45  37 S10       30.05F
LAMONI         SUNNY     71  45  39 S14G23    30.08F
DES MOINES     SUNNY     72  41  32 S20       30.04F

$$





USA.gov is the U.S. government's official web portal to all federal, state and local government web resources and services.